EW8328 Weather Reports


time (UTC)temp
C
wind
direction
speed
KPH
gust
KPH
rain 1hr
cm
rain 24hr
cm
rain mn
cm
humidity
%
barometer
mb
20260905030319 12 244 16.1 27.4 0.00 0.05 0.00 83 1015.0
20260905025819 12 251 11.3 19.3 0.00 0.05 0.00 83 1014.9
20260905025319 12 264 11.3 19.3 0.00 0.05 0.00 83 1015.0
20260905024818 12 245 9.7 22.5 0.00 0.05 0.00 83 1015.0
20260905024320 12 267 9.7 14.5 0.00 0.05 0.00 82 1015.0
20260905023319 13 244 9.7 19.3 0.00 0.05 0.00 82 1014.8
20260905022820 13 249 9.7 20.9 0.00 0.05 0.00 82 1014.8
20260905022319 13 250 11.3 22.5 0.00 0.05 0.00 82 1014.8
20260905021819 13 250 9.7 22.5 0.00 0.05 0.00 82 1014.7
20260905021319 13 257 9.7 20.9 0.00 0.05 0.00 82 1014.6
20260905020819 13 248 9.7 20.9 0.00 0.05 0.00 82 1014.5
20260905020318 13 248 12.9 20.9 0.00 0.05 0.00 82 1014.5
20260905015319 13 267 9.7 25.7 0.00 0.05 0.00 83 1014.3
20260905014818 13 244 14.5 25.7 0.00 0.05 0.00 83 1014.3
20260905014320 13 257 11.3 22.5 0.00 0.08 0.00 83 1014.2
20260905013319 13 246 9.7 19.3 0.00 0.13 0.00 83 1014.1
20260905012819 13 248 16.1 33.8 0.00 0.15 0.00 82 1014.0
20260905012318 13 256 16.1 24.1 0.00 0.18 0.00 81 1013.9
20260905011819 13 253 11.3 29.0 0.00 0.23 0.00 81 1013.8
20260905011318 13 246 11.3 27.4 0.00 0.23 0.00 81 1013.7
20260905010820 13 265 11.3 24.1 0.00 0.28 0.00 81 1013.5
20260905005820 13 245 16.1 29.0 0.00 0.33 0.00 81 1013.4
20260905004819 13 246 14.5 25.7 0.00 0.36 0.00 82 1013.3
20260905004319 13 250 19.3 32.2 0.00 0.38 0.00 83 1013.5
20260905003820 13 247 14.5 33.8 0.00 0.41 0.00 83 1013.5
20260905002819 13 258 14.5 29.0 0.00 0.43 0.00 83 1013.5
20260905002318 13 250 14.5 46.7 0.00 0.46 0.00 83 1013.5
20260905001819 13 262 14.5 24.1 0.00 0.48 0.00 83 1013.4
20260905001319 13 254 11.3 32.2 0.00 0.51 0.00 83 1013.5
20260905000818 13 254 19.3 35.4 0.00 0.51 0.00 82 1013.4
20260905000319 13 260 16.1 27.4 0.00 0.51 0.00 82 1013.4
20260904235819 13 258 14.5 37.0 0.00 0.51 0.00 82 1013.3
20260904235319 13 247 12.9 29.0 0.00 0.53 0.00 82 1013.2
20260904234819 13 257 11.3 25.7 0.00 0.56 0.00 82 1013.2
20260904234318 13 246 16.1 33.8 0.00 0.58 0.00 82 1013.2
20260904233318 13 252 14.5 24.1 0.00 0.64 0.00 81 1013.2
20260904232819 13 231 12.9 32.2 0.00 0.69 0.00 81 1013.1
20260904232318 13 249 12.9 24.1 0.00 0.71 0.00 81 1013.1
20260904231818 13 259 14.5 22.5 0.00 0.74 0.00 80 1013.0
20260904231319 13 237 14.5 32.2 0.00 0.76 0.00 79 1013.1
20260904230902 13 258 12.9 19.3 0.00 0.79 0.00 79 1013.1
20260904225819 14 246 14.5 29.0 0.00 0.81 0.81 79 1013.0
20260904225318 14 268 9.7 24.1 0.00 0.84 0.81 79 1012.9
20260904224319 14 247 14.5 24.1 0.00 0.89 0.81 80 1012.8
20260904223819 14 254 11.3 20.9 0.00 0.91 0.81 80 1012.8
20260904222819 14 254 14.5 24.1 0.00 0.97 0.81 82 1012.7
20260904222318 14 239 11.3 25.7 0.00 0.99 0.81 82 1012.8
20260904221818 14 242 11.3 19.3 0.00 1.02 0.81 83 1012.8
20260904221319 14 246 9.7 25.7 0.00 1.04 0.81 84 1012.8
20260904220819 14 236 11.3 16.1 0.00 1.09 0.81 83 1012.8
20260904220319 14 248 9.7 16.1 0.00 1.12 0.81 83 1012.9
20260904215818 14 248 14.5 32.2 0.00 1.17 0.81 83 1012.9
20260904215318 14 254 9.7 27.4 0.00 1.17 0.81 82 1012.8
20260904214818 14 243 9.7 20.9 0.00 1.17 0.81 82 1012.8
20260904214318 14 247 12.9 24.1 0.00 1.19 0.81 82 1012.8
20260904213819 14 248 9.7 32.2 0.00 1.24 0.81 82 1012.8
20260904213318 14 256 9.7 19.3 0.00 1.27 0.81 82 1012.7
20260904212819 14 239 9.7 19.3 0.00 1.27 0.81 82 1012.7
20260904211818 14 264 11.3 19.3 0.00 1.30 0.81 84 1012.8
20260904211319 14 238 9.7 16.1 0.00 1.30 0.81 84 1012.8
20260904210818 15 247 9.7 19.3 0.00 1.30 0.81 84 1012.8
20260904210318 15 242 9.7 22.5 0.00 1.30 0.81 84 1012.7
20260904205318 15 242 9.7 20.9 0.00 1.30 0.81 85 1012.7
20260904204819 15 238 9.7 20.9 0.00 1.30 0.81 85 1012.7
20260904204318 15 247 11.3 19.3 0.00 1.30 0.81 85 1012.8
20260904203318 15 241 11.3 22.5 0.00 1.32 0.81 84 1012.8
20260904202819 15 249 14.5 22.5 0.00 1.32 0.81 84 1012.8
20260904202318 15 238 12.9 29.0 0.00 1.32 0.81 82 1012.7
20260904201819 15 229 16.1 29.0 0.00 1.32 0.81 82 1012.6
20260904201319 15 250 16.1 24.1 0.00 1.32 0.81 82 1012.6
20260904200819 15 244 8.0 22.5 0.00 1.32 0.81 82 1012.6
20260904200319 15 244 8.0 19.3 0.00 1.32 0.81 82 1012.6
20260904195319 15 230 11.3 20.9 0.00 1.35 0.81 81 1012.6
20260904194318 15 262 6.4 19.3 0.00 1.35 0.81 81 1012.7
20260904193819 15 230 9.7 16.1 0.00 1.35 0.81 80 1012.6
20260904193318 15 256 6.4 19.3 0.00 1.35 0.81 80 1012.6
20260904192819 15 219 9.7 16.1 0.00 1.35 0.81 80 1012.4
20260904192319 15 243 9.7 22.5 0.00 1.35 0.81 80 1012.4
20260904191819 15 238 11.3 19.3 0.00 1.35 0.81 79 1012.2
20260904191318 15 217 11.3 19.3 0.00 1.37 0.81 79 1012.1
20260904190818 15 227 9.7 20.9 0.00 1.37 0.81 78 1011.9
20260904190319 15 227 12.9 24.1 0.00 1.37 0.81 78 1011.9
20260904185819 15 255 12.9 29.0 0.00 1.37 0.81 78 1011.8
20260904185318 15 244 9.7 22.5 0.00 1.37 0.81 78 1011.7
20260904184819 15 234 9.7 22.5 0.00 1.37 0.81 78 1011.6
20260904184318 15 230 9.7 29.0 0.00 1.40 0.81 77 1011.6
20260904183818 15 261 8.0 16.1 0.00 1.40 0.81 77 1011.6
20260904183319 15 228 11.3 24.1 0.00 1.42 0.81 76 1011.4
20260904182818 15 234 14.5 27.4 0.00 1.42 0.81 76 1011.2
20260904182318 15 259 11.3 29.0 0.00 1.42 0.81 75 1011.2
20260904181818 16 243 9.7 20.9 0.00 1.42 0.81 75 1011.1
20260904181318 16 242 9.7 20.9 0.00 1.45 0.81 75 1011.0
20260904180319 16 239 9.7 22.5 0.00 1.45 0.81 74 1010.7
20260904175318 16 236 8.0 19.3 0.00 1.45 0.81 74 1010.5
20260904174819 16 254 8.0 24.1 0.00 1.45 0.81 74 1010.4
20260904174318 16 247 9.7 24.1 0.00 1.45 0.81 74 1010.3
20260904173819 16 242 12.9 27.4 0.00 1.45 0.81 73 1010.2
20260904173318 16 244 9.7 19.3 0.00 1.45 0.81 73 1010.1
20260904172318 16 243 16.1 24.1 0.00 1.45 0.81 71 1009.9
20260904171818 16 243 11.3 32.2 0.00 1.45 0.81 71 1009.9
20260904171320 17 257 12.9 24.1 0.00 1.45 0.81 71 1009.8
20260904170819 17 241 11.3 25.7 0.00 1.45 0.81 70 1009.9
20260904170318 17 261 9.7 24.1 0.00 1.45 0.81 70 1009.7
20260904165818 17 266 12.9 32.2 0.00 1.45 0.81 70 1009.6
20260904164819 17 236 11.3 27.4 0.00 1.45 0.81 69 1009.5
20260904164318 17 248 11.3 32.2 0.00 1.45 0.81 69 1009.4
20260904163818 17 252 11.3 25.7 0.00 1.45 0.81 70 1009.4
20260904163319 17 246 11.3 25.7 0.00 1.45 0.81 70 1009.2
20260904162318 17 259 11.3 27.4 0.00 1.45 0.81 70 1009.1
20260904161819 17 244 16.1 27.4 0.00 1.45 0.81 70 1008.8
20260904160819 17 246 16.1 29.0 0.00 1.45 0.81 70 1008.6
20260904160318 17 242 17.7 32.2 0.00 1.45 0.81 70 1008.6
20260904155818 17 254 14.5 29.0 0.00 1.45 0.81 70 1008.7
20260904155318 17 245 14.5 29.0 0.00 1.45 0.81 70 1008.7
20260904154818 17 259 16.1 25.7 0.00 1.45 0.81 71 1008.6
20260904154318 17 253 14.5 33.8 0.00 1.45 0.81 72 1008.6
20260904153818 16 247 14.5 32.2 0.00 1.45 0.81 72 1008.5
20260904152818 16 247 19.3 38.6 0.00 1.45 0.81 71 1008.4
20260904152318 17 260 16.1 29.0 0.00 1.45 0.81 71 1008.4
20260904151319 16 251 19.3 35.4 0.00 1.45 0.81 72 1008.4
20260904150818 16 255 20.9 37.0 0.00 1.45 0.81 74 1008.4
20260904145818 16 242 20.9 33.8 0.00 1.45 0.81 74 1008.5
20260904145318 16 257 22.5 33.8 0.00 1.45 0.81 74 1008.6
20260904144819 16 243 22.5 41.8 0.00 1.45 0.81 73 1008.4
20260904144318 16 243 19.3 33.8 0.00 1.45 0.81 73 1008.5
20260904143819 16 242 16.1 40.2 0.00 1.45 0.81 73 1008.5
20260904143318 16 245 16.1 27.4 0.00 1.45 0.81 73 1008.5
20260904142818 16 246 16.1 32.2 0.00 1.45 0.81 72 1008.6
20260904142318 16 251 17.7 37.0 0.00 1.45 0.81 73 1008.5
20260904141818 16 261 17.7 32.2 0.00 1.45 0.81 75 1008.7
20260904141318 16 241 16.1 32.2 0.00 1.45 0.81 75 1008.9
20260904140820 16 247 19.3 29.0 0.00 1.45 0.81 75 1008.7
20260904140317 16 247 16.1 33.8 0.00 1.45 0.81 74 1008.6
20260904135818 16 246 20.9 40.2 0.00 1.45 0.81 74 1008.5
20260904135318 16 239 17.7 33.8 0.00 1.45 0.81 74 1008.5
20260904134818 16 258 17.7 27.4 0.00 1.45 0.81 74 1008.4
20260904134318 16 243 20.9 32.2 0.00 1.45 0.81 73 1008.8
20260904133818 16 239 17.7 35.4 0.00 1.45 0.81 74 1008.5
20260904133318 16 258 14.5 35.4 0.00 1.45 0.81 75 1008.5
20260904132820 16 256 20.9 33.8 0.00 1.45 0.81 75 1008.5
20260904132318 16 249 16.1 27.4 0.00 1.45 0.81 77 1008.5
20260904131818 16 247 19.3 35.4 0.00 1.45 0.81 78 1008.4
20260904131318 15 234 22.5 35.4 0.00 1.45 0.81 78 1008.4
20260904130817 16 242 17.7 32.2 0.00 1.45 0.81 79 1008.4
20260904125819 16 238 14.5 29.0 0.00 1.45 0.81 78 1008.2
20260904125318 16 249 19.3 35.4 0.00 1.45 0.81 77 1008.1
20260904124819 16 254 20.9 33.8 0.00 1.45 0.81 78 1008.0
20260904123818 16 256 16.1 29.0 0.05 1.45 0.81 78 1007.9
20260904122318 15 244 16.1 32.2 0.05 1.45 0.81 80 1007.9
20260904121819 15 245 14.5 32.2 0.05 1.45 0.81 79 1007.9
20260904121318 16 236 14.5 29.0 0.05 1.45 0.81 79 1007.9
20260904120818 15 251 19.3 35.4 0.05 1.45 0.81 80 1007.8
20260904120318 15 257 19.3 33.8 0.05 1.45 0.81 84 1007.6
20260904114818 15 258 16.1 32.2 0.05 1.45 0.81 84 1007.3
20260904113819 16 258 16.1 25.7 0.00 1.42 0.79 75 1007.2
20260904113319 16 249 19.3 33.8 0.00 1.42 0.79 74 1007.1
20260904112318 16 234 16.1 25.7 0.00 1.42 0.79 75 1006.7
20260904111818 16 243 16.1 35.4 0.00 1.42 0.79 75 1006.8
20260904111318 16 241 16.1 32.2 0.00 1.42 0.79 75 1006.8
20260904110820 16 247 14.5 25.7 0.00 1.42 0.79 75 1006.7
20260904110319 16 248 16.1 32.2 0.00 1.42 0.79 76 1006.5
20260904105818 16 251 12.9 32.2 0.00 1.42 0.79 75 1006.5
20260904105318 16 244 16.1 32.2 0.00 1.42 0.79 76 1006.6
20260904104818 16 253 16.1 32.2 0.00 1.42 0.79 77 1006.5
20260904104318 16 244 17.7 32.2 0.00 1.42 0.79 76 1006.5
20260904103317 16 251 14.5 32.2 0.00 1.42 0.79 77 1006.5
20260904102818 16 249 14.5 32.2 0.00 1.42 0.79 77 1006.6
20260904102318 16 244 17.7 32.2 0.00 1.42 0.79 76 1006.5
20260904101819 16 249 14.5 35.4 0.00 1.42 0.79 76 1006.4
20260904101318 16 240 19.3 35.4 0.00 1.42 0.79 77 1006.2
20260904100818 16 249 16.1 32.2 0.00 1.42 0.79 77 1006.3
20260904100317 16 248 16.1 35.4 0.00 1.42 0.79 77 1006.2
20260904095818 16 254 16.1 37.0 0.00 1.42 0.79 77 1006.0
20260904095318 15 241 17.7 33.8 0.00 1.42 0.79 78 1006.0
20260904094318 15 247 11.3 46.7 0.00 1.42 0.79 81 1005.9
20260904093818 15 248 20.9 40.2 0.00 1.42 0.79 80 1006.2
20260904093318 15 250 16.1 29.0 0.00 1.42 0.79 82 1006.2
20260904092818 15 249 16.1 35.4 0.00 1.42 0.79 83 1005.9
20260904092318 15 248 16.1 35.4 0.00 1.42 0.79 83 1005.9
20260904091818 14 259 16.1 29.0 0.00 1.42 0.79 84 1005.9
20260904091318 14 242 17.7 29.0 0.00 1.42 0.79 83 1005.8
20260904090818 14 251 16.1 32.2 0.00 1.42 0.79 82 1005.8
20260904090317 14 247 16.1 32.2 0.00 1.42 0.79 83 1005.6
20260904085818 15 246 11.3 29.0 0.00 1.42 0.79 84 1005.6
20260904085317 14 248 17.7 33.8 0.00 1.42 0.79 84 1005.6
20260904084818 15 236 22.5 33.8 0.00 1.42 0.79 84 1005.6
20260904084318 15 243 17.7 29.0 0.00 1.42 0.79 84 1005.4
20260904083818 15 238 14.5 27.4 0.00 1.42 0.79 84 1005.4
20260904083318 15 246 16.1 27.4 0.00 1.42 0.79 84 1005.5
20260904082818 15 256 16.1 29.0 0.00 1.42 0.79 83 1005.4
20260904082317 15 243 14.5 37.0 0.00 1.42 0.79 84 1005.5
20260904081319 15 251 16.1 29.0 0.00 1.42 0.79 85 1005.4
20260904080817 15 249 12.9 24.1 0.00 1.42 0.79 85 1005.4
20260904080318 15 247 17.7 35.4 0.00 1.42 0.79 85 1005.3
20260904075818 15 256 14.5 29.0 0.00 1.42 0.79 86 1005.4
20260904075317 14 254 16.1 29.0 0.00 1.42 0.79 87 1005.2
20260904074817 14 247 17.7 32.2 0.00 1.45 0.79 88 1005.1
20260904074318 14 250 14.5 29.0 0.00 1.45 0.79 89 1005.2
20260904073817 14 242 16.1 29.0 0.00 1.45 0.79 89 1005.1
20260904073317 14 239 16.1 29.0 0.00 1.45 0.79 89 1005.2
20260904072818 14 239 14.5 24.1 0.00 1.45 0.79 89 1005.0
20260904072318 14 251 11.3 27.4 0.00 1.45 0.79 88 1005.0
20260904071818 14 247 16.1 24.1 0.00 1.45 0.79 89 1005.0
20260904071317 14 249 14.5 33.8 0.00 1.45 0.79 89 1005.0
20260904070817 14 249 14.5 24.1 0.00 1.45 0.79 89 1005.0
20260904070317 14 249 17.7 27.4 0.00 1.45 0.79 90 1005.0
20260904065318 13 247 16.1 27.4 0.00 1.45 0.79 91 1004.9
20260904063818 13 248 11.3 24.1 0.00 1.47 0.79 91 1004.7
20260904063317 13 239 12.9 25.7 0.00 1.47 0.79 91 1004.5
20260904062818 13 243 17.7 29.0 0.00 1.47 0.79 91 1004.4
20260904062317 13 250 14.5 27.4 0.00 1.47 0.79 91 1004.5
20260904061819 13 244 14.5 25.7 0.00 1.47 0.79 91 1004.6
20260904061318 13 253 14.5 22.5 0.00 1.47 0.79 92 1004.9
20260904060818 13 244 17.7 32.2 0.00 1.47 0.79 92 1004.7
20260904060318 13 264 14.5 29.0 0.00 1.47 0.79 93 1004.7
20260904055317 13 250 14.5 25.7 0.00 1.47 0.79 93 1004.5
20260904054318 13 247 14.5 32.2 0.00 1.47 0.79 94 1004.5
20260904053818 13 252 11.3 25.7 0.00 1.47 0.79 94 1004.5
20260904053318 13 239 11.3 24.1 0.00 1.47 0.79 94 1004.6
20260904052818 13 247 11.3 24.1 0.00 1.47 0.79 94 1004.6
20260904051817 13 251 11.3 24.1 0.00 1.47 0.79 95 1004.5
20260904051317 13 248 11.3 22.5 0.00 1.47 0.79 95 1004.5
20260904050817 13 254 9.7 19.3 0.00 1.47 0.79 95 1004.4
20260904050318 14 263 12.9 27.4 0.00 1.47 0.79 95 1004.4
20260904045818 14 255 11.3 20.9 0.00 1.47 0.79 96 1004.5
20260904045317 14 250 11.3 20.9 0.00 1.47 0.79 96 1004.6
20260904044819 14 252 9.7 16.1 0.00 1.47 0.79 96 1004.4
20260904044317 13 245 9.7 16.1 0.00 1.47 0.79 96 1004.5
20260904043819 14 255 8.0 16.1 0.00 1.47 0.79 95 1004.4
20260904043318 13 239 8.0 12.9 0.00 1.47 0.79 96 1004.5
20260904042817 13 245 6.4 14.5 0.00 1.47 0.79 96 1004.5
20260904042318 13 251 4.8 11.3 0.00 1.47 0.79 96 1004.5
20260904041817 14 244 4.8 12.9 0.00 1.47 0.79 96 1004.3
20260904041317 14 249 6.4 11.3 0.00 1.47 0.79 96 1004.3
20260904040818 14 242 8.0 11.3 0.00 1.47 0.79 96 1004.4
20260904040317 14 229 4.8 12.9 0.00 1.47 0.79 96 1004.4
20260904035817 14 255 6.4 11.3 0.00 1.47 0.79 96 1004.5
20260904035318 14 250 6.4 11.3 0.00 1.47 0.79 96 1004.7
20260904034819 14 252 9.7 14.5 0.00 1.47 0.79 96 1004.8
20260904034318 14 244 8.0 19.3 0.00 1.47 0.79 96 1004.7
20260904033818 14 249 8.0 12.9 0.00 1.47 0.79 96 1004.7
20260904033317 14 243 6.4 16.1 0.00 1.47 0.79 96 1004.8
20260904032317 13 252 6.4 9.7 0.00 1.47 0.79 96 1004.9
20260904031817 13 247 4.8 9.7 0.00 1.47 0.79 96 1005.0
20260904031317 13 227 3.2 4.8 0.00 1.47 0.79 96 1004.7